EZY38MA EGGD-EGNS

Flight info

Callsign EZY38MA
Flight time 0h 41m
Altitude 22000
Route BCN P69 INFUS/N0368F240 P69 DIZIM N864 WAL M146 LUSOD DCT IOM
Aircraft A320/M-SDE2E3FGHIJ1RWXYZ/LB1

Departure

Time 2026-04-22 08:22
Airport Bristol Airport (EGGD)

Arrival

Time 2026-04-22 09:03
Airport Isle of Man Airport (EGNS)
Time Latitude Longitude Altitude Speed Heading
2026-04-22 07:52 51.38541 -2.71480 619 ft 0 kts 356°
2026-04-22 08:14 51.38525 -2.71478 622 ft 4 kts 356°
2026-04-22 08:14 51.38499 -2.71476 622 ft 4 kts 356°
2026-04-22 08:15 51.38476 -2.71474 624 ft 2 kts 356°
2026-04-22 08:15 51.38454 -2.71465 627 ft 4 kts 310°
2026-04-22 08:15 51.38447 -2.71432 624 ft 4 kts 266°
2026-04-22 08:15 51.38447 -2.71422 628 ft 0 kts 266°
2026-04-22 08:18 51.38446 -2.71438 625 ft 6 kts 266°
2026-04-22 08:18 51.38439 -2.71624 621 ft 24 kts 266°
2026-04-22 08:19 51.38431 -2.71866 606 ft 21 kts 269°
2026-04-22 08:19 51.38429 -2.72089 603 ft 19 kts 267°
2026-04-22 08:19 51.38422 -2.72307 609 ft 21 kts 266°
2026-04-22 08:19 51.38412 -2.72563 611 ft 26 kts 267°
2026-04-22 08:20 51.38400 -2.72854 606 ft 21 kts 266°
2026-04-22 08:20 51.38391 -2.73091 605 ft 20 kts 266°
2026-04-22 08:20 51.38375 -2.73269 624 ft 12 kts 245°
2026-04-22 08:20 51.38308 -2.73341 617 ft 15 kts 185°
2026-04-22 08:21 51.38218 -2.73284 629 ft 13 kts 107°
2026-04-22 08:21 51.38224 -2.73058 631 ft 44 kts 86°
2026-04-22 08:21 51.38258 -2.72170 622 ft 113 kts 86°
2026-04-22 08:21 51.38320 -2.70665 885 ft 144 kts 85°
2026-04-22 08:22 51.38380 -2.69064 1718 ft 143 kts 87°
2026-04-22 08:22 51.38458 -2.67451 2341 ft 155 kts 88°
2026-04-22 08:22 51.38533 -2.65563 2607 ft 188 kts 89°
2026-04-22 08:22 51.38594 -2.63312 2983 ft 219 kts 90°
2026-04-22 08:23 51.38645 -2.60779 3725 ft 232 kts 90°
2026-04-22 08:23 51.38709 -2.58206 4819 ft 232 kts 89°
2026-04-22 08:23 51.39126 -2.55654 5653 ft 247 kts 67°
2026-04-22 08:23 51.40287 -2.53566 5930 ft 261 kts 38°
2026-04-22 08:24 51.42067 -2.52715 6087 ft 284 kts
2026-04-22 08:24 51.44033 -2.53210 6933 ft 292 kts 354°
2026-04-22 08:24 51.46063 -2.53833 7839 ft 295 kts 354°
2026-04-22 08:24 51.47989 -2.54406 8681 ft 298 kts 354°
2026-04-22 08:25 51.50130 -2.55033 9600 ft 302 kts 354°
2026-04-22 08:25 51.52207 -2.55640 10440 ft 307 kts 354°
2026-04-22 08:25 51.54357 -2.56267 10755 ft 330 kts 353°
2026-04-22 08:25 51.56699 -2.56953 11252 ft 343 kts 353°
2026-04-22 08:26 51.59070 -2.57659 12010 ft 348 kts 352°
2026-04-22 08:26 51.61451 -2.58371 12803 ft 352 kts 352°
2026-04-22 08:26 51.63845 -2.59086 13579 ft 355 kts 352°
2026-04-22 08:26 51.66277 -2.59810 14313 ft 358 kts 351°
2026-04-22 08:27 51.68737 -2.60547 14994 ft 361 kts 352°
2026-04-22 08:27 51.71211 -2.61288 15720 ft 362 kts 351°
2026-04-22 08:27 51.73698 -2.62033 16502 ft 362 kts 350°
2026-04-22 08:27 51.76166 -2.62772 17254 ft 362 kts 350°
2026-04-22 08:28 51.78645 -2.63516 18034 ft 362 kts 349°
2026-04-22 08:28 51.81116 -2.64258 18786 ft 362 kts 349°
2026-04-22 08:28 51.83595 -2.65004 19400 ft 363 kts 348°
2026-04-22 08:28 51.86088 -2.65753 20040 ft 363 kts 348°
2026-04-22 08:29 51.88590 -2.66500 20576 ft 367 kts 348°
2026-04-22 08:29 51.91114 -2.67257 21078 ft 371 kts 347°
2026-04-22 08:29 51.93663 -2.68027 21640 ft 373 kts 347°
2026-04-22 08:29 51.96222 -2.68810 22160 ft 376 kts 348°
2026-04-22 08:30 51.98808 -2.69601 22638 ft 381 kts 347°
2026-04-22 08:30 52.01423 -2.70390 23162 ft 383 kts 347°
2026-04-22 08:30 52.04056 -2.71179 23690 ft 386 kts 347°
2026-04-22 08:30 52.06709 -2.71976 24150 ft 389 kts 347°
2026-04-22 08:31 52.09371 -2.72780 24320 ft 390 kts 347°
2026-04-22 08:31 52.11997 -2.73578 24361 ft 375 kts 347°
2026-04-22 08:31 52.17043 -2.75117 24371 ft 367 kts 347°
2026-04-22 08:32 52.19562 -2.75885 24369 ft 366 kts 347°
2026-04-22 08:32 52.21207 -2.76387 24370 ft 366 kts 347°
2026-04-22 08:32 52.23721 -2.77155 24373 ft 366 kts 347°
2026-04-22 08:32 52.26228 -2.77926 24384 ft 365 kts 347°
2026-04-22 08:33 52.28720 -2.78692 24372 ft 364 kts 347°
2026-04-22 08:33 52.31203 -2.79456 24375 ft 364 kts 347°
2026-04-22 08:33 52.33699 -2.80223 24374 ft 364 kts 347°
2026-04-22 08:33 52.36171 -2.80984 24384 ft 364 kts 347°
2026-04-22 08:34 52.38664 -2.81750 24384 ft 364 kts 347°
2026-04-22 08:34 52.41147 -2.82511 24383 ft 364 kts 347°
2026-04-22 08:34 52.43639 -2.83279 24386 ft 364 kts 347°
2026-04-22 08:34 52.46121 -2.84045 24395 ft 364 kts 347°
2026-04-22 08:35 52.48609 -2.84816 24396 ft 364 kts 347°
2026-04-22 08:35 52.51106 -2.85592 24412 ft 364 kts 346°
2026-04-22 08:35 52.53595 -2.86366 24411 ft 364 kts 347°
2026-04-22 08:35 52.56081 -2.87136 24415 ft 364 kts 347°
2026-04-22 08:36 52.58570 -2.87907 24414 ft 364 kts 347°
2026-04-22 08:36 52.61055 -2.88678 24413 ft 363 kts 347°
2026-04-22 08:36 52.63533 -2.89449 24416 ft 363 kts 346°
2026-04-22 08:36 52.66017 -2.90229 24416 ft 363 kts 346°
2026-04-22 08:37 52.68497 -2.91009 24414 ft 363 kts 346°
2026-04-22 08:37 52.70978 -2.91784 24416 ft 363 kts 347°
2026-04-22 08:37 52.73461 -2.92557 24426 ft 363 kts 346°
2026-04-22 08:37 52.75940 -2.93329 24426 ft 363 kts 346°
2026-04-22 08:38 52.78425 -2.94100 24424 ft 363 kts 346°
2026-04-22 08:38 52.80900 -2.94872 24423 ft 363 kts 346°
2026-04-22 08:38 52.83380 -2.95650 24429 ft 363 kts 346°
2026-04-22 08:38 52.85866 -2.96431 24430 ft 363 kts 346°
2026-04-22 08:39 52.88331 -2.97209 24432 ft 363 kts 346°
2026-04-22 08:39 52.90814 -2.97995 24433 ft 363 kts 346°
2026-04-22 08:39 52.93288 -2.98777 24438 ft 362 kts 346°
2026-04-22 08:39 52.95771 -2.99565 24440 ft 362 kts 346°
2026-04-22 08:40 52.98247 -3.00352 24453 ft 363 kts 346°
2026-04-22 08:40 53.00682 -3.01126 24455 ft 363 kts 346°
2026-04-22 08:40 53.03201 -3.01925 24452 ft 363 kts 346°
2026-04-22 08:40 53.05680 -3.02708 24453 ft 363 kts 346°
2026-04-22 08:41 53.08128 -3.03484 24451 ft 363 kts 346°
2026-04-22 08:41 53.10637 -3.04280 24448 ft 363 kts 346°
2026-04-22 08:41 53.13114 -3.05071 24448 ft 363 kts 346°
2026-04-22 08:41 53.15560 -3.05856 24448 ft 363 kts 346°
2026-04-22 08:42 53.18045 -3.06654 24440 ft 363 kts 346°
2026-04-22 08:42 53.20528 -3.07449 24434 ft 363 kts 346°
2026-04-22 08:42 53.23005 -3.08242 24443 ft 364 kts 346°
2026-04-22 08:42 53.25492 -3.09043 24441 ft 364 kts 346°
2026-04-22 08:43 53.27982 -3.09846 24438 ft 364 kts 346°
2026-04-22 08:43 53.30448 -3.10636 24276 ft 358 kts 346°
2026-04-22 08:43 53.32874 -3.11410 24041 ft 350 kts 346°
2026-04-22 08:43 53.35242 -3.12166 23776 ft 346 kts 346°
2026-04-22 08:44 53.37547 -3.13186 23497 ft 340 kts 336°
2026-04-22 08:44 53.39655 -3.14942 23224 ft 336 kts 325°
2026-04-22 08:44 53.41477 -3.17326 22951 ft 332 kts 314°
2026-04-22 08:44 53.43103 -3.20102 22690 ft 332 kts 312°
2026-04-22 08:45 53.44708 -3.22843 22347 ft 327 kts 313°
2026-04-22 08:45 53.46296 -3.25541 21934 ft 324 kts 313°
2026-04-22 08:45 53.47881 -3.28233 21547 ft 322 kts 313°
2026-04-22 08:45 53.49436 -3.30885 21159 ft 319 kts 312°
2026-04-22 08:46 53.50989 -3.33540 20770 ft 317 kts 312°
2026-04-22 08:46 53.52535 -3.36191 20388 ft 316 kts 314°
2026-04-22 08:46 53.54065 -3.38821 20016 ft 315 kts 313°
2026-04-22 08:46 53.55599 -3.41461 19623 ft 315 kts 313°
2026-04-22 08:47 53.57135 -3.44102 19224 ft 316 kts 313°
2026-04-22 08:47 53.58526 -3.46926 18856 ft 315 kts 304°
2026-04-22 08:47 53.59791 -3.49955 18434 ft 316 kts 304°
2026-04-22 08:47 53.61062 -3.52982 18038 ft 316 kts 304°
2026-04-22 08:48 53.62328 -3.55995 17663 ft 315 kts 304°
2026-04-22 08:48 53.63601 -3.59021 17289 ft 315 kts 304°
2026-04-22 08:48 53.64863 -3.62016 16914 ft 315 kts 304°
2026-04-22 08:48 53.66137 -3.65045 16550 ft 316 kts 304°
2026-04-22 08:49 53.67405 -3.68063 16187 ft 316 kts 304°
2026-04-22 08:49 53.68677 -3.71094 15814 ft 316 kts 304°
2026-04-22 08:49 53.69950 -3.74132 15455 ft 317 kts 304°
2026-04-22 08:49 53.71217 -3.77169 15091 ft 318 kts 303°
2026-04-22 08:50 53.72493 -3.80237 14731 ft 320 kts 303°
2026-04-22 08:50 53.73772 -3.83319 14362 ft 322 kts 304°
2026-04-22 08:50 53.75058 -3.86417 13972 ft 323 kts 304°
2026-04-22 08:50 53.76343 -3.89513 13586 ft 322 kts 304°
2026-04-22 08:51 53.77633 -3.92624 13207 ft 322 kts 304°
2026-04-22 08:51 53.78902 -3.95687 12852 ft 322 kts 304°
2026-04-22 08:51 53.80206 -3.98836 12459 ft 322 kts 304°
2026-04-22 08:51 53.81474 -4.01904 12086 ft 322 kts 304°
2026-04-22 08:52 53.82768 -4.05047 11704 ft 321 kts 304°
2026-04-22 08:52 53.84045 -4.08155 11308 ft 321 kts 304°
2026-04-22 08:52 53.85301 -4.11214 10934 ft 321 kts 304°
2026-04-22 08:52 53.86568 -4.14299 10545 ft 321 kts 304°
2026-04-22 08:53 53.87866 -4.17463 10128 ft 321 kts 304°
2026-04-22 08:53 53.89111 -4.20510 9849 ft 316 kts 304°
2026-04-22 08:53 53.90365 -4.23579 9345 ft 319 kts 304°
2026-04-22 08:53 53.91620 -4.26651 8952 ft 317 kts 304°
2026-04-22 08:54 53.92862 -4.29688 8703 ft 309 kts 304°
2026-04-22 08:54 53.94046 -4.32709 8334 ft 306 kts 298°
2026-04-22 08:54 53.95015 -4.35977 7917 ft 305 kts 295°
2026-04-22 08:54 53.95784 -4.39236 7621 ft 299 kts 284°
2026-04-22 08:55 53.96263 -4.42644 7215 ft 297 kts 280°
2026-04-22 08:55 53.96678 -4.46077 6826 ft 296 kts 279°
2026-04-22 08:55 53.97084 -4.49516 6365 ft 297 kts 279°
2026-04-22 08:55 53.97476 -4.52945 5991 ft 294 kts 279°
2026-04-22 08:56 53.97857 -4.56335 5562 ft 293 kts 279°
2026-04-22 08:56 53.98236 -4.59741 5135 ft 293 kts 279°
2026-04-22 08:56 53.98598 -4.63121 4757 ft 290 kts 277°
2026-04-22 08:56 53.98846 -4.66514 4304 ft 289 kts 275°
2026-04-22 08:57 53.99060 -4.69883 4010 ft 283 kts 274°
2026-04-22 08:57 53.99266 -4.73140 3891 ft 270 kts 274°
2026-04-22 08:57 53.99465 -4.76252 3769 ft 259 kts 274°
2026-04-22 08:57 53.99654 -4.79265 3493 ft 256 kts 274°
2026-04-22 08:58 54.00078 -4.82168 3171 ft 255 kts 301°
2026-04-22 08:58 54.01278 -4.84273 3019 ft 247 kts 336°
2026-04-22 08:58 54.02881 -4.85054 2982 ft 237 kts
2026-04-22 08:58 54.04422 -4.84661 2893 ft 214 kts 30°
2026-04-22 08:59 54.05637 -4.83442 2767 ft 195 kts 50°
2026-04-22 08:59 54.06456 -4.81716 2580 ft 182 kts 69°
2026-04-22 08:59 54.06849 -4.79778 2356 ft 165 kts 86°
2026-04-22 08:59 54.07001 -4.77948 2107 ft 147 kts 86°
2026-04-22 09:00 54.07133 -4.76341 1915 ft 128 kts 87°
2026-04-22 09:00 54.07250 -4.74898 1673 ft 118 kts 86°
2026-04-22 09:00 54.07357 -4.73548 1476 ft 111 kts 85°
2026-04-22 09:00 54.07460 -4.72252 1303 ft 110 kts 85°
2026-04-22 09:01 54.07562 -4.70965 1128 ft 109 kts 84°
2026-04-22 09:01 54.07646 -4.69702 965 ft 107 kts 85°
2026-04-22 09:01 54.07714 -4.68425 806 ft 109 kts 86°
2026-04-22 09:01 54.07799 -4.67131 621 ft 114 kts 84°
2026-04-22 09:02 54.07921 -4.65799 412 ft 113 kts 81°
2026-04-22 09:02 54.08071 -4.64469 210 ft 116 kts 80°
2026-04-22 09:02 54.08236 -4.63141 53 ft 110 kts 81°
2026-04-22 09:02 54.08360 -4.62110 41 ft 53 kts 78°
2026-04-22 09:03 54.08416 -4.61653 43 ft 33 kts 78°
2026-04-22 09:03 54.08464 -4.61430 41 ft 14 kts 31°
2026-04-22 09:03 54.08539 -4.61517 43 ft 14 kts 263°
2026-04-22 09:03 54.08546 -4.61708 42 ft 16 kts 277°
2026-04-22 09:04 54.08548 -4.61922 44 ft 17 kts 258°
2026-04-22 09:04 54.08521 -4.62139 46 ft 18 kts 258°
2026-04-22 09:04 54.08498 -4.62321 51 ft 14 kts 258°
2026-04-22 09:04 54.08472 -4.62524 47 ft 22 kts 257°
2026-04-22 09:05 54.08443 -4.62757 43 ft 14 kts 258°
2026-04-22 09:05 54.08423 -4.62918 43 ft 14 kts 258°
2026-04-22 09:05 54.08463 -4.62996 43 ft 10 kts 348°
2026-04-22 09:05 54.08523 -4.63018 45 ft 7 kts 348°
2026-04-22 09:06 54.08561 -4.63033 44 ft 8 kts 342°
2026-04-22 09:06 54.08608 -4.63096 45 ft 8 kts 313°
2026-04-22 09:06 54.08629 -4.63168 45 ft 7 kts 250°
2026-04-22 09:06 54.08603 -4.63214 45 ft 1 kts 224°
2026-04-22 09:07 54.08603 -4.63215 45 ft 0 kts 224°